Home   Weather   Durban   Past weeks

Flag for South Africa Past Weather in Durban, South Africa — Yesterday and Last 2 Weeks

Now
82 °F

Sunny.


Feels Like: 85 °F
Forecast: 72 / 84 °F
Wind: 16 mph from Northeast

Location: King Shaka International Airport

Current Time: Feb 28, 2017 at 2:35:27 pm

Latest Report: Feb 28, 2017 at 2:00 pm


Visibility: 10 mi

Pressure: 29.86 "Hg

Humidity: 62%

Dew Point: 68 °F

Location of DurbanLocation

Past Weather in Durban — Graph

°F

Durban Temperature Yesterday

Maximum temperature yesterday: 75 °F (at 10:00 am)
Minimum temperature yesterday: 63 °F (at 3:00 am)
Average temperature yesterday: 71 °F

High & Low Weather Summary for the Past Weeks

 TemperatureHumidityPressure
High93 °F (Feb 18, 1:00 pm)89% (Feb 13, 9:26 pm)30.12 "Hg (Feb 13, 9:26 pm)
Low63 °F (Feb 27, 3:00 am)48% (Feb 24, 11:00 am)29.80 "Hg (Feb 13, 3:31 pm)
Average74 °F76%30.00 "Hg
* Reported Feb 13 1:00 pm — Feb 28 1:00 pm, Durban, Weather by CustomWeather, © 2017

Note: Actual official high and low records may vary slightly from our data, if they occured in-between our weather recording intervals... More about our weather records

Advertising

Durban Weather History for the Previous 24 Hours

Scroll right to see more
 ConditionsComfort  
Time TempWeatherWind HumidityBarometerVisibility
1:00 pm
Tue, Feb 28
82 °FSunny.22 mph55%29.86 "Hg10 mi
12:00 pm82 °FSunny.20 mph55%29.89 "Hg10 mi
11:00 am82 °FSunny.15 mph55%29.92 "Hg10 mi
10:00 am81 °FSunny.16 mph54%29.95 "Hg10 mi
9:00 am77 °FSunny.12 mph61%29.98 "Hg10 mi
8:27 am77 °FSunny.10 mph61%29.98 "Hg10 mi
7:00 am70 °FSunny.7 mph73%29.98 "Hg10 mi
6:00 am66 °FSunny.5 mph78%29.98 "Hg10 mi
5:00 am66 °FPassing clouds.3 mph83%29.98 "HgN/A
4:00 am70 °FPassing clouds.6 mph73%29.98 "HgN/A
3:00 am70 °FOvercast.6 mph73%29.98 "HgN/A
2:00 am70 °FOvercast.6 mph73%30.01 "HgN/A
1:00 am70 °FMostly cloudy.5 mph73%30.01 "HgN/A
12:00 am72 °FMostly cloudy.5 mph69%30.04 "HgN/A
11:00 pm
Mon, Feb 27
72 °FMostly cloudy.5 mph69%30.04 "HgN/A
9:00 pm72 °FPassing clouds.5 mph69%30.04 "HgN/A
8:00 pm72 °FPartly cloudy.3 mph69%30.04 "HgN/A
7:00 pm72 °FPassing clouds.7 mph69%30.01 "HgN/A
6:00 pm73 °FBroken clouds.9 mph61%30.01 "HgN/A
5:00 pm75 °FPassing clouds.9 mph57%30.01 "HgN/A
4:00 pm75 °FScattered clouds.12 mph61%30.01 "HgN/A
3:00 pm75 °FScattered clouds.10 mph61%30.01 "HgN/A
2:00 pm75 °FBroken clouds.9 mph61%30.04 "HgN/A
Weather by CustomWeather, © 2017

See weather overviewHow to use our weather pages